This is the latest recevied weather packets stored in our database for station/object KB1FFS. If no packets are shown the sender has not sent any weather packets the latest 10 day(s).
| Time | Temp. | Humidity | Pressure | Rain* | Wind** | Luminosity | Snow |
|---|---|---|---|---|---|---|---|
| 1788101303 | 32.22° C | 52% | 1017.8 hPa | 0 mm | - | 332 W/m² | - |
| 1788100999 | 31.67° C | 54% | 1017.9 hPa | 0 mm | - | 314 W/m² | - |
| 1788100695 | 31.67° C | 53% | 1017.9 hPa | 0 mm | - | 295 W/m² | - |
| 1788100394 | 31.11° C | 54% | 1017.8 hPa | 0 mm | - | 277 W/m² | - |
| 1788100088 | 31.11° C | 54% | 1018 hPa | 0 mm | - | 259 W/m² | - |
| 1788099783 | 30.56° C | 55% | 1018 hPa | 0 mm | - | 239 W/m² | - |
| 1788099480 | 30.56° C | 57% | 1017.8 hPa | 0 mm | - | 221 W/m² | - |
| 1788099180 | 30° C | 57% | 1017.8 hPa | 0 mm | - | 196 W/m² | - |
| 1788098875 | 30° C | 59% | 1017.8 hPa | 0 mm | - | 160 W/m² | - |
| 1788098575 | 29.44° C | 60% | 1018.1 hPa | 0 mm | - | 76 W/m² | - |
| 1788098270 | 29.44° C | 61% | 1017.9 hPa | 0 mm | - | 41 W/m² | - |
| 1788097965 | 29.44° C | 61% | 1018 hPa | 0 mm | - | 40 W/m² | - |
| 1788097661 | 28.89° C | 63% | 1018 hPa | 0 mm | - | 39 W/m² | - |
| 1788097361 | 28.89° C | 63% | 1018.2 hPa | 0 mm | - | 37 W/m² | - |
| 1788097057 | 28.89° C | 64% | 1017.8 hPa | 0 mm | - | 36 W/m² | - |
| 1788096752 | 28.33° C | 65% | 1017.9 hPa | 0 mm | - | 35 W/m² | - |
| 1788096448 | 28.33° C | 66% | 1017.9 hPa | 0 mm | - | 34 W/m² | - |
| 1788096143 | 27.78° C | 67% | 1017.8 hPa | 0 mm | - | 32 W/m² | - |
| 1788095842 | 27.78° C | 67% | 1017.9 hPa | 0 mm | - | 31 W/m² | - |
| 1788095537 | 27.78° C | 68% | 1017.8 hPa | 0 mm | - | 29 W/m² | - |
| 1788095232 | 27.22° C | 68% | 1017.7 hPa | 0 mm | - | 28 W/m² | - |
| 1788094932 | 27.22° C | 70% | 1017.4 hPa | 0 mm | - | 26 W/m² | - |
| 1788094632 | 27.22° C | 70% | 1017.4 hPa | 0 mm | - | 25 W/m² | - |
| 1788094327 | 27.22° C | 70% | 1017.5 hPa | 0 mm | - | 23 W/m² | - |
| 1788094024 | 27.22° C | 70% | 1017.2 hPa | 0 mm | - | 21 W/m² | - |
* Rain latest hour (hover to see other rain measurements)
** Current wind speed in m/s (hover to see current wind gust speed)